sat.trackr.live / text

‹ back to catalog

STARLINK-2443

NORAD 48107 · 2021-027R

PAYLOAD ACTIVE UNKNOWN

§ Identity

Operator
Country
US
Launch date
2021-04-07
Launch site
AFETR
Launch vehicle
Mass (kg)
RCS (m²)

Purposes: comms

External: N2YO · Heavens-Above · Gunter

§ Orbital elements

Epoch: 2026-09-19T16:17:26.772576Z

Period
94.01 min
Inclination
53.1593°
Eccentricity
0.0001152
Mean motion
15.31711550 rev/d
Perigee alt
469.9 km
Apogee alt
471.5 km
Semi-major
6,848.8 km
B*
9.8712e-5
RAAN
329.9919°
Arg perigee
91.6798°
Mean anomaly
268.4336°
Rev number
30,240

§ Raw data

STARLINK-24431 48107U 21027R   26262.67878209  .00002700  00000+0  98712-4 0  99962 48107  53.1593 329.9919 0001152  91.6798 268.4336 15.31711550302409

JSON: /api/v1/satellites/48107 · /tle

For live sub-satellite position, see the globe view (requires WebGL).

§ Visibility from observer

Set your observer location to see the next 7 days of passes ≥ 10°. The values pass through the URL so the page stays shareable.

No JS? Fill the form by hand. The geolocation button needs JavaScript.